Wind_Speed
6 6 7 6 4 4 5 6 8 9 7 7 5 3 3 2 3 4 5 9 11 8 7 7 3 6 9 9 9 9 9 9 8 8 7 5 5 6 6 6 6 6 6 6 4 3 2 2 3 4 4 5 6 7 7 7 7 7 6 7 8 8 8 9 9 8 6 6 6 6 6 7 9 9 9 9 10 11 10 10 9 9 10 10 10 10
5 8 7 5 5 6 6 6 6 7 5 4 4 0 1 2 2 5 5 7 9 7 5 7 5 6 9 9 10 10 9 9 9 9 8 7 5 5 7 7 8 7 7 6 4 3 2 2 2 4 4 4 5 6 6 6 7 6 6 7 9 9 8 7 8 8 6 7 7 7 7 8 9 9 9 9 11 12 11 11 11 10 11 10 9 9
7 10 8 4 3 6 5 4 5 6 5 3 2 1 1 1 3 5 5 6 7 5 3 8 7 6 8 8 9 11 10 8 7 7 8 8 6 6 7 8 8 8 7 6 4 3 3 3 3 4 3 4 5 5 5 6 6 7 8 9 10 10 9 8 9 9 8 9 8 8 9 9 9 10 11 11 11 12 11 12 12 12 12 11 10 10
8 8 5 3 2 8 6 3 5 6 4 1 2 2 2 2 2 2 6 8 6 3 0 6 7 4 7 8 8 11 11 7 5 6 7 7 7 7 6 8 8 8 7 6 5 4 4 3 4 3 3 5 4 4 5 5 6 8 9 10 11 10 10 10 10 9 9 10 9 10 11 10 10 10 11 11 11 11 12 12 12 12 12 11 11 11
11 2 5 3 3 7 8 6 6 7 4 3 3 5 3 1 3 2 7 9 6 4 2 5 6 5 8 10 9 10 10 8 7 8 8 8 8 7 7 8 8 7 7 7 6 6 5 5 4 4 4 5 5 4 5 5 6 8 9 9 10 10 10 10 10 9 10 10 10 11 11 11 11 11 10 10 10 11 12 13 12 12 12 11 11 11
12 3 5 5 7 7 9 8 4 5 5 4 6 6 5 1 1 5 10 9 5 5 6 8 6 3 9 11 10 10 10 10 9 10 11 10 9 9 9 9 8 8 8 8 8 7 7 6 6 4 4 5 5 5 5 5 7 7 8 9 9 11 11 11 11 11 11 11 11 11 10 10 10 10 11 11 10 10 11 12 12 12 12 12 12 12
6 2 4 8 10 10 10 9 4 4 8 2 5 5 4 1 3 8 10 7 2 0 5 9 7 2 5 10 11 10 11 11 9 9 10 10 11 10 10 10 10 9 9 9 9 9 8 7 7 5 4 5 5 5 5 6 7 7 8 10 11 13 14 14 13 13 13 13 13 13 12 11 9 9 11 12 11 11 11 11 11 12 12 12 12 12
6 7 7 9 11 10 10 7 4 3 8 2 5 3 1 2 4 7 7 5 1 2 5 8 7 5 3 6 11 12 11 11 10 10 10 11 12 11 11 11 10 10 10 9 9 9 9 7 7 6 6 6 6 6 6 6 7 8 9 11 13 14 15 15 15 15 15 15 15 15 14 13 11 11 11 11 11 11 10 11 11 11 12 12 12 12
5 10 10 10 10 9 9 3 3 3 5 3 4 1 2 3 3 5 5 2 1 2 4 6 6 6 4 4 9 10 11 11 11 11 11 13 13 12 13 13 11 11 10 9 10 9 9 8 7 7 7 7 7 6 7 8 9 9 11 13 14 14 15 15 16 16 16 16 16 15 15 14 13 11 10 10 11 12 11 11 13 13 12 11 11 12
4 2 4 7 8 7 5 1 2 4 2 5 4 3 4 4 3 3 3 2 1 4 5 5 8 6 3 5 7 7 9 10 10 10 11 15 14 14 15 14 12 12 11 10 10 10 9 8 7 8 8 8 8 8 8 10 10 11 12 13 13 14 14 15 15 15 15 16 15 14 14 14 13 12 12 11 12 13 12 13 13 13 13 11 11 12
3 2 1 4 7 5 2 3 1 2 4 8 7 5 5 4 3 2 2 1 3 4 3 3 8 6 4 2 4 4 4 5 7 9 11 15 16 15 15 14 13 13 12 10 11 11 10 9 8 9 9 9 9 10 10 11 11 12 12 12 12 13 13 13 13 13 14 13 13 13 12 12 12 12 12 12 12 12 12 12 11 11 11 10 10 11
8 6 4 6 7 6 4 2 2 3 7 8 6 4 4 3 3 3 3 2 6 3 2 1 5 6 5 2 2 5 6 4 5 8 12 15 16 16 15 14 14 14 13 12 11 12 10 10 11 11 11 11 11 11 12 12 11 11 11 11 11 11 11 11 11 11 11 12 11 11 11 12 12 12 12 11 11 11 10 10 10 10 10 10 10 10
10 11 10 9 8 8 9 5 5 5 7 7 6 5 6 4 3 5 4 4 6 1 3 1 3 5 6 2 3 6 8 6 6 6 10 15 16 15 15 14 14 14 14 13 12 13 12 11 13 13 12 12 12 11 12 11 11 10 9 9 9 9 9 8 9 9 10 10 10 11 11 12 12 13 12 12 11 10 9 9 9 10 10 10 9 9
8 11 13 11 9 11 12 8 5 6 7 8 7 6 7 5 5 7 5 4 5 1 4 2 2 5 6 1 5 6 7 8 8 7 8 12 14 15 15 15 13 14 14 13 14 14 13 13 14 15 14 13 12 12 12 11 10 9 7 7 7 7 7 8 8 9 10 10 11 11 12 12 12 12 11 11 11 10 9 9 9 9 9 9 9 9
9 8 11 12 9 11 14 13 10 6 6 8 8 7 7 6 6 7 5 5 5 1 4 4 3 5 4 3 6 6 8 7 7 8 8 9 12 15 16 15 13 14 13 13 14 14 14 14 15 15 14 13 13 12 12 10 9 7 6 6 5 6 6 7 8 9 10 10 11 12 13 13 13 13 12 12 14 12 12 11 9 10 9 8 9 9
9 6 6 9 5 8 14 15 14 10 7 7 6 7 7 6 6 6 5 6 7 4 2 4 4 2 1 5 7 7 8 8 6 8 9 11 13 16 16 15 14 14 13 13 13 14 14 15 15 15 14 14 13 13 11 9 8 7 6 5 4 5 5 6 8 10 10 10 12 14 15 15 15 15 14 14 15 14 13 13 10 9 9 8 8 9
7 7 6 8 6 9 11 9 11 11 6 4 6 8 3 3 7 6 4 3 5 7 3 3 5 2 4 5 6 7 7 8 7 8 10 12 15 16 15 16 15 14 13 13 13 14 15 15 15 14 14 14 13 12 11 9 8 7 6 5 4 4 5 7 10 10 10 12 14 15 16 16 15 15 14 14 14 13 12 12 10 9 9 8 8 8
6 6 7 11 10 9 6 4 7 9 7 4 4 4 4 1 5 6 5 4 4 7 4 3 6 3 2 2 5 8 7 8 9 9 10 12 14 15 15 15 15 14 14 13 12 13 14 15 15 14 14 13 13 12 11 9 7 7 6 3 1 3 6 9 9 9 10 12 14 15 15 16 15 14 14 13 12 10 10 10 9 8 8 8 8 8
5 6 5 10 10 8 8 6 6 7 8 7 4 1 2 4 5 5 6 7 6 7 5 2 4 4 2 1 4 8 9 9 10 9 10 11 13 14 14 14 14 14 14 13 13 13 14 15 14 14 14 13 13 12 11 9 8 7 2 3 4 6 8 8 8 10 12 14 15 15 15 15 14 14 13 12 11 10 9 9 8 8 8 8 8 8
4 7 3 7 7 6 8 8 9 8 9 7 5 4 4 5 5 4 5 6 6 7 6 3 2 1 2 4 4 4 7 10 10 9 9 11 13 13 13 14 14 14 15 14 14 14 14 14 14 14 14 14 14 12 11 11 9 4 3 6 5 8 8 8 9 12 14 15 15 16 15 14 14 14 13 12 11 10 9 9 8 8 8 8 8 8
5 6 3 5 7 6 7 8 9 8 8 8 8 8 7 5 4 4 4 4 5 7 6 6 5 1 5 4 5 6 6 9 9 9 9 11 13 13 13 13 13 13 14 14 14 14 14 14 14 15 15 14 13 11 9 8 5 2 3 2 4 7 8 9 12 14 15 15 15 15 15 14 13 12 11 10 9 8 9 9 8 8 8 8 7 8
5 5 5 4 7 7 5 3 3 7 6 6 8 10 9 8 5 6 6 4 4 6 6 7 7 2 5 3 5 7 6 8 10 9 10 11 12 12 12 12 12 12 13 13 14 14 14 15 15 16 15 13 12 10 6 2 2 2 1 1 3 5 7 9 12 14 14 15 15 15 13 12 11 10 9 9 9 9 9 9 9 8 8 8 7 8
7 5 5 5 6 3 4 5 1 5 7 8 7 7 8 9 8 8 6 3 3 4 4 6 6 2 4 3 4 6 7 8 10 9 10 11 11 10 10 11 11 12 12 13 14 14 14 15 15 15 14 12 10 7 3 1 2 1 2 3 4 6 8 10 12 14 15 13 12 11 10 9 10 9 9 9 9 9 9 8 8 8 8 8 7 8
6 5 5 5 5 2 3 5 3 4 7 8 7 6 7 6 6 6 5 2 4 5 4 6 5 2 4 3 4 6 7 8 8 9 10 11 10 10 10 11 11 12 13 14 14 14 15 15 14 13 12 11 8 3 1 2 2 2 3 3 4 6 8 11 11 12 13 11 9 8 8 9 9 10 9 9 9 10 9 8 7 8 8 7 7 8
7 6 6 5 5 6 6 6 5 5 7 6 4 6 6 5 5 5 3 3 5 4 4 8 5 3 4 4 5 6 7 8 8 8 9 10 10 10 11 11 11 14 15 15 14 14 14 14 12 11 10 7 3 1 2 3 3 3 4 3 4 4 6 8 10 10 9 9 9 9 9 10 10 11 10 10 10 9 8 8 8 8 8 7 8 9
7 5 6 6 6 6 5 4 3 3 5 3 2 6 7 7 7 5 3 5 5 1 3 7 3 4 6 6 6 6 6 7 7 8 8 9 10 11 11 11 12 14 14 13 13 13 13 12 11 10 7 3 1 2 3 4 4 3 3 4 5 7 9 10 11 11 9 8 8 9 10 11 12 11 10 10 9 8 8 9 9 9 8 8 9 8
5 3 6 7 6 2 2 3 3 3 3 5 5 7 8 6 6 5 4 4 2 1 3 1 2 3 7 8 7 7 7 7 7 8 8 9 10 11 11 11 12 13 13 13 13 13 13 10 8 6 4 2 3 4 5 5 4 2 3 6 8 11 13 12 11 11 9 8 8 9 10 11 11 10 9 9 8 8 9 9 9 9 8 8 8 8
4 5 7 6 5 4 4 4 3 4 2 5 7 8 7 6 6 7 3 1 1 4 2 4 4 2 5 8 8 8 7 6 7 8 9 9 10 11 11 11 11 13 13 12 11 11 11 6 4 4 4 5 6 7 6 5 3 2 4 7 10 12 13 12 9 8 8 9 9 10 10 11 11 10 9 9 9 10 10 10 9 9 9 8 9 8
5 5 6 5 3 1 2 1 1 1 1 4 7 7 6 6 6 4 3 5 2 2 2 6 5 5 7 8 8 8 7 7 8 9 9 10 10 11 12 11 11 12 12 11 10 10 8 4 4 8 8 8 8 6 5 4 2 3 6 9 10 11 11 10 8 7 8 9 9 9 9 10 10 10 10 10 10 10 10 10 10 10 10 11 11 11
5 2 5 5 3 3 2 2 3 4 6 7 6 6 5 5 5 6 7 6 6 6 7 7 9 9 7 7 9 9 8 8 9 9 10 11 10 11 11 11 12 12 12 12 10 8 6 6 9 11 10 8 7 6 4 2 2 5 7 8 9 10 10 8 7 7 8 8 8 8 7 8 10 10 10 10 10 11 11 10 10 11 11 11 12 12
4 3 5 6 3 4 3 4 5 7 8 9 8 6 6 7 8 8 7 5 5 7 7 6 8 7 6 8 10 9 8 9 10 10 10 10 10 11 11 11 12 12 12 11 9 7 8 10 11 10 9 8 7 5 3 1 3 4 5 6 7 8 8 7 7 7 7 7 7 6 6 7 8 9 10 10 10 11 11 11 11 11 11 11 11 12
6 3 5 5 3 3 4 6 8 9 8 9 8 7 5 5 6 6 5 4 2 4 5 4 3 4 6 9 10 9 9 9 9 10 9 9 9 10 10 12 12 12 12 11 9 8 10 10 9 9 8 7 5 3 2 2 3 3 3 4 6 6 7 6 6 6 6 6 6 6 5 5 7 9 9 10 10 11 11 11 11 12 12 12 12 12
6 5 6 5 3 3 5 6 8 9 7 6 5 5 4 5 5 5 5 5 5 3 1 1 2 6 9 10 9 9 8 8 9 8 8 8 9 9 9 11 12 12 11 9 8 9 10 10 9 9 8 6 4 2 1 1 2 2 3 4 5 5 5 5 5 6 6 6 5 5 6 6 6 8 8 9 10 10 11 11 11 12 12 12 12 12
7 6 5 4 3 5 6 5 7 8 5 2 3 3 4 4 4 4 6 8 7 5 4 5 7 8 10 9 8 8 8 8 8 7 5 7 8 8 8 10 11 11 10 8 9 11 12 11 9 8 7 5 3 2 1 1 2 3 3 4 5 5 5 5 5 5 6 6 5 6 7 5 5 6 8 8 8 9 10 11 11 11 11 11 11 11
8 6 3 2 2 4 6 6 7 6 1 3 2 2 3 3 4 6 8 7 7 6 6 7 8 9 9 8 8 8 9 8 7 6 5 6 6 7 9 10 9 9 10 11 12 12 11 11 9 8 7 4 3 3 2 2 3 4 4 4 5 5 6 6 6 5 5 6 6 7 8 5 3 5 7 7 7 8 9 10 10 11 11 10 10 10
8 5 3 2 1 4 6 6 4 1 4 5 4 4 4 3 4 5 6 6 6 5 4 6 9 9 9 10 10 10 10 10 8 6 5 6 6 6 7 7 8 10 13 13 12 11 11 10 8 7 5 4 4 3 3 3 4 4 4 5 5 6 6 6 6 6 6 7 7 7 8 6 3 4 6 6 6 7 7 9 9 10 11 10 10 10
5 5 5 3 1 3 5 4 2 4 5 6 5 4 2 2 2 1 1 5 4 3 4 7 9 10 10 10 10 10 10 9 7 6 5 6 7 7 6 7 11 14 15 13 12 11 10 9 7 5 4 4 5 4 4 5 4 4 4 5 5 6 6 7 7 7 6 7 7 7 8 6 2 3 4 5 5 6 7 8 8 8 9 9 10 10
2 2 4 4 2 2 4 3 3 4 3 3 5 4 2 3 3 2 0 3 3 3 5 8 8 9 10 10 10 10 9 7 5 6 6 7 10 11 10 9 11 14 15 14 13 12 10 8 7 5 5 6 6 5 5 5 5 5 5 5 5 6 6 7 8 7 7 6 7 7 7 6 3 2 3 4 5 5 6 7 7 7 7 8 10 10
3 2 2 3 3 3 4 5 4 2 1 3 4 4 2 1 1 2 3 2 3 4 6 8 8 9 9 9 10 9 6 4 3 7 7 10 13 14 14 15 15 16 16 14 13 12 10 8 6 6 7 7 6 6 5 5 5 5 5 5 6 6 7 8 8 8 7 6 7 7 7 5 3 4 4 4 4 4 5 5 6 6 7 7 8 9
4 4 3 3 3 4 5 4 1 2 4 4 3 3 3 1 2 4 4 1 3 5 7 7 8 8 8 9 9 6 1 2 5 9 10 12 15 14 16 18 17 17 16 14 12 11 9 7 7 7 7 6 6 6 5 4 4 5 5 6 6 7 7 8 8 7 6 6 6 6 6 6 5 5 5 4 4 5 5 6 6 6 7 7 7 8
4 3 2 3 3 3 4 4 0 4 5 4 3 3 2 2 4 4 2 3 6 7 7 6 7 8 9 7 5 4 5 7 10 13 13 15 17 17 16 17 16 16 15 14 12 10 8 8 8 7 7 7 6 5 4 4 4 5 6 6 7 7 7 7 7 7 6 5 6 7 7 7 7 7 6 6 7 7 7 7 7 6 6 7 7 7
3 3 1 2 2 1 3 4 1 3 3 3 3 3 2 3 3 0 3 5 7 8 8 7 8 9 8 7 7 9 11 11 13 14 15 16 17 17 16 16 16 15 14 12 11 10 9 8 8 8 8 7 5 4 4 4 6 7 7 7 7 6 6 7 7 6 5 5 5 6 7 7 8 7 7 7 7 7 7 7 7 7 7 7 8 8
1 1 2 2 0 1 3 3 2 2 3 3 2 2 1 2 1 6 7 8 8 9 9 9 9 8 8 10 12 12 12 11 12 15 16 16 15 15 16 16 16 14 13 12 10 9 9 9 9 9 8 6 5 4 4 5 6 7 7 8 7 6 6 7 6 5 5 5 4 5 6 6 7 7 7 7 6 5 6 7 8 8 8 8 8 8
3 3 1 2 2 2 3 1 1 2 4 4 4 3 5 6 6 8 9 9 10 9 9 9 9 8 9 11 13 12 11 11 12 14 14 14 14 15 15 15 14 13 12 11 10 9 9 9 9 8 7 6 5 4 4 5 6 6 8 8 7 6 6 6 5 5 5 5 4 4 5 6 6 6 7 7 6 5 6 7 8 8 8 8 8 8
4 3 3 4 4 3 4 5 4 4 5 6 8 9 10 9 8 7 9 11 10 8 8 9 9 9 10 12 14 13 11 11 11 12 12 12 13 14 14 14 13 12 11 10 10 9 8 8 8 7 6 5 4 4 4 5 5 5 7 7 6 6 6 6 5 5 5 5 3 4 5 6 6 6 7 7 6 6 6 7 8 9 8 8 8 8
5 3 2 4 6 8 9 9 8 8 9 9 10 11 11 10 10 10 11 12 11 10 9 10 10 11 11 12 12 12 12 11 11 12 12 12 13 13 14 13 12 11 11 10 10 9 8 7 7 6 5 4 4 4 4 5 5 5 6 7 7 6 7 6 6 6 5 5 3 4 5 6 5 6 6 6 6 6 6 7 8 8 9 9 8 8
3 1 2 5 6 5 5 7 8 10 11 11 12 12 13 13 13 13 14 15 14 13 13 12 12 12 12 12 13 14 14 12 12 12 12 12 13 13 13 12 11 10 10 10 9 8 7 6 5 4 4 3 3 3 4 5 5 6 7 7 6 7 7 6 6 5 5 4 4 4 5 5 6 6 6 6 5 5 5 6 7 8 9 8 8 8
2 1 4 6 4 4 7 9 10 11 12 11 12 14 15 16 17 17 17 17 16 15 14 13 12 12 13 13 14 15 14 13 12 12 12 11 12 12 11 11 11 10 9 9 8 7 6 5 4 3 3 2 3 3 4 4 5 6 6 6 6 6 6 6 6 5 4 5 5 5 5 5 6 6 6 5 5 4 4 5 5 6 7 7 7 7
3 3 4 7 8 8 9 11 13 13 12 12 14 15 16 17 19 18 16 16 15 15 14 12 12 13 14 15 14 13 13 12 11 10 10 11 11 11 11 10 10 9 9 8 7 6 5 4 3 3 2 2 2 3 4 5 5 6 6 5 6 6 5 5 5 4 4 5 5 5 5 6 6 6 6 5 4 4 3 3 3 3 4 5 6 7
3 5 6 7 7 6 9 12 11 9 9 11 15 16 16 16 17 16 15 14 14 14 14 14 14 14 14 13 12 11 11 11 10 9 10 10 10 10 10 10 9 8 8 7 6 5 4 3 2 2 1 2 3 4 4 5 5 5 4 4 5 5 4 4 3 3 3 5 6 5 5 6 6 6 6 5 4 4 5 5 4 3 3 4 6 7
3 4 3 2 4 8 14 14 10 10 14 15 16 16 15 14 14 15 14 13 13 13 14 14 14 14 12 10 9 9 9 9 9 9 9 9 9 9 8 8 7 7 6 5 4 4 3 2 2 1 1 3 4 4 4 4 4 4 3 3 4 5 4 3 3 2 3 5 5 5 5 6 6 6 6 6 5 4 6 7 6 5 5 5 6 7
Wind_Direction
231 247 237 248 285 331 335 345 334 325 323 306 291 276 266 246 182 143 123 149 176 198 200 198 190 154 160 159 169 184 188 189 177 164 170 171 161 152 147 141 132 125 119 114 106 98 86 51 17 19 25 14 17 34 46 53 55 56 64 73 73 67 68 74 81 87 75 69 75 76 74 66 60 57 55 54 53 53 49 45 43 37 33 31 29 24
221 251 247 257 309 322 321 337 330 320 320 288 277 286 190 247 95 110 122 149 179 216 192 175 194 175 166 162 165 180 197 199 191 180 179 181 171 157 153 147 137 129 122 117 114 114 98 76 41 37 38 43 48 51 55 60 64 62 63 74 78 75 74 79 87 90 86 79 77 78 76 69 67 65 63 58 49 46 45 43 41 37 38 38 32 24
225 248 246 228 296 297 298 318 313 309 304 284 270 265 95 104 106 116 130 149 182 228 173 169 202 186 168 174 168 182 203 205 203 197 187 184 181 172 160 153 149 136 123 126 133 130 111 88 67 54 59 75 72 66 67 69 69 68 69 74 76 79 80 80 84 87 84 82 79 76 75 73 71 67 65 61 53 47 45 43 38 35 36 36 30 23
234 244 236 169 260 281 275 261 288 286 257 278 308 293 54 133 202 146 149 161 184 243 137 177 204 182 169 184 181 189 201 205 216 220 206 191 185 185 167 155 160 149 136 146 147 133 118 97 85 79 84 87 79 77 82 78 74 74 75 76 76 78 80 76 76 78 77 74 71 71 75 78 77 70 64 59 55 51 48 45 39 35 34 33 31 26
248 225 106 122 246 268 273 253 263 280 241 106 33 337 17 158 266 34 134 155 172 216 231 194 210 202 186 195 194 188 193 201 209 218 217 199 184 185 167 153 162 159 149 155 151 138 132 119 104 99 98 94 88 89 89 84 82 82 80 79 79 80 82 82 79 75 73 70 68 71 74 73 72 68 63 56 51 47 45 42 36 35 33 27 28 28
249 208 137 238 258 251 264 254 237 292 272 125 72 357 341 283 193 113 142 156 178 211 203 208 241 220 182 198 197 179 187 196 194 206 211 194 182 181 170 158 153 150 150 150 147 139 137 130 118 109 105 103 98 94 95 93 90 87 85 83 82 84 85 85 83 79 78 78 74 75 74 70 65 61 57 53 50 45 41 39 32 31 31 24 21 20
244 188 188 240 252 243 251 251 218 279 275 220 66 2 325 242 156 145 165 184 221 187 172 207 257 311 180 199 191 178 187 188 180 194 196 181 179 180 173 164 152 149 151 146 142 138 136 131 127 127 121 116 112 106 104 99 93 88 89 90 88 90 90 88 86 83 82 81 77 74 73 73 68 61 54 49 47 44 39 35 29 26 24 22 19 14
219 210 215 228 241 240 239 237 182 240 276 349 51 342 271 152 160 166 189 216 290 63 151 202 246 285 255 190 172 179 190 187 182 183 177 172 175 173 166 160 156 158 156 149 145 139 134 134 136 137 132 127 124 117 112 106 99 94 94 95 94 91 90 88 85 81 77 74 71 67 65 66 64 57 50 44 40 40 38 32 28 25 19 16 14 10
195 219 218 217 229 231 234 243 98 228 274 48 57 315 121 124 158 178 211 249 275 228 210 198 212 260 274 140 153 179 194 198 191 179 171 169 167 165 162 157 157 160 158 155 148 140 138 142 145 141 133 129 129 123 118 112 104 99 98 97 94 89 85 82 78 74 70 66 64 61 57 56 55 51 47 39 32 31 29 22 19 16 14 11 5 2
112 211 220 216 225 228 236 7 49 254 261 101 137 141 117 130 150 193 240 279 235 254 267 194 192 250 279 139 157 187 205 209 194 179 171 165 163 164 162 158 155 156 158 156 146 142 144 144 144 138 130 129 131 126 119 114 109 106 104 99 93 86 80 76 71 66 62 59 57 55 51 48 46 42 38 30 24 22 18 14 9 4 4 2 353 351
120 93 311 232 238 261 293 59 38 262 122 137 168 151 131 141 150 215 252 286 250 250 284 178 192 247 289 147 159 172 192 197 178 171 166 162 163 166 165 161 157 156 158 155 147 144 144 143 140 135 133 132 128 124 120 117 115 114 109 101 93 86 78 72 66 61 57 54 51 49 45 41 38 34 29 23 17 13 10 6 0 355 355 352 345 343
217 214 230 224 233 258 252 181 146 151 152 175 205 192 190 164 163 218 182 211 265 265 58 122 197 234 265 277 123 121 117 122 149 160 164 165 164 164 166 162 158 159 156 151 149 146 145 147 142 138 138 134 128 126 125 123 122 121 113 104 94 85 79 72 64 56 50 45 42 40 36 33 31 27 23 17 10 6 2 357 352 350 348 344 341 338
223 226 225 216 215 227 238 216 160 169 190 215 232 222 237 233 211 243 221 223 271 314 95 147 208 236 260 272 107 120 121 117 119 133 158 165 164 164 165 162 159 160 157 152 152 150 149 151 147 143 141 136 134 133 131 130 128 124 115 103 90 82 76 67 57 48 41 36 33 32 29 25 22 18 14 9 3 359 354 348 345 345 343 339 340 335
217 220 217 217 214 214 230 233 189 188 200 220 232 231 248 258 252 263 258 257 278 112 110 134 203 250 259 186 104 115 111 110 118 123 142 160 168 168 163 162 161 160 161 157 155 155 155 153 148 144 141 141 142 141 140 138 132 123 110 92 80 73 64 55 46 36 29 26 25 25 22 18 15 12 7 360 358 356 351 348 342 342 343 339 336 332
227 219 198 206 211 199 211 230 239 238 211 215 236 244 250 264 274 279 281 291 302 110 133 158 197 261 270 108 100 107 109 110 126 131 139 156 165 163 157 158 164 166 166 161 158 160 156 151 147 144 145 148 147 145 145 139 132 125 112 96 81 68 60 52 37 23 19 19 19 16 12 10 7 5 1 356 357 357 353 353 349 345 347 342 337 334
238 252 189 189 192 188 206 222 234 252 245 213 222 243 254 265 266 279 299 305 309 298 203 189 223 286 75 123 123 125 124 117 118 130 146 157 152 152 155 160 168 173 168 161 161 159 152 148 148 147 149 151 149 149 147 141 139 135 121 110 91 71 59 37 17 12 13 12 9 6 3 3 2 2 360 354 354 355 351 353 355 351 349 349 347 341
233 252 199 184 192 204 220 221 214 233 248 198 213 233 250 301 274 270 275 264 278 285 268 222 251 207 132 151 144 141 134 123 122 126 141 155 152 152 163 168 170 171 163 160 161 157 151 149 150 150 151 153 152 151 148 144 143 134 119 112 91 62 30 6 2 4 6 3 1 359 358 359 358 356 353 349 350 354 354 355 358 359 355 355 356 350
239 254 190 194 213 198 203 225 201 218 239 226 227 214 136 99 268 263 266 250 254 276 267 233 268 257 179 206 153 163 166 137 130 125 130 151 158 160 169 169 166 161 156 157 157 155 153 152 152 152 153 154 152 152 151 143 136 134 129 118 29 6 359 356 358 359 359 357 356 357 357 355 353 351 351 354 357 360 2 3 3 3 0 359 1 2
226 256 187 194 213 167 160 211 205 198 225 248 275 203 167 239 239 220 254 267 265 276 272 218 270 280 277 352 136 173 178 144 133 132 135 153 162 163 164 164 163 156 152 156 157 155 155 154 154 155 153 151 149 150 148 140 138 142 141 316 329 352 357 359 359 355 355 356 355 355 353 350 349 352 354 0 6 6 6 7 7 6 7 5 4 6
202 249 215 172 187 159 162 208 218 194 196 227 255 232 224 262 266 232 247 269 273 280 285 276 266 281 48 44 68 127 154 144 138 138 143 153 159 159 159 164 166 156 151 155 156 155 155 154 156 154 150 147 145 145 146 153 162 169 316 319 343 1 358 357 355 353 354 354 353 351 348 348 350 353 355 0 10 13 6 5 8 8 8 8 5 6
190 229 239 137 152 187 191 201 230 226 195 198 219 223 217 224 257 262 251 259 272 276 284 289 288 54 76 41 45 72 113 134 132 136 144 149 155 158 160 166 166 154 151 154 154 154 153 153 154 150 146 146 149 153 159 177 204 278 327 328 11 7 1 357 352 353 353 350 351 352 349 352 357 359 359 0 12 19 10 5 6 8 13 11 6 6
198 213 236 177 168 197 185 148 272 282 259 227 217 220 224 217 224 245 237 224 261 280 293 293 295 43 79 34 51 72 91 115 122 132 139 143 151 155 157 165 163 153 152 154 152 151 151 151 151 146 144 147 153 161 170 207 297 336 35 71 35 6 4 359 348 348 349 350 355 359 359 0 3 5 3 2 11 18 16 12 7 10 17 12 4 2
213 228 240 224 208 214 85 91 303 281 266 259 247 233 230 224 225 239 241 224 242 270 283 283 288 32 81 53 62 74 80 103 122 131 133 139 148 153 156 163 162 151 151 153 150 149 151 151 150 148 148 151 155 167 202 320 353 14 58 50 14 351 351 351 348 348 353 0 6 9 9 6 2 5 7 8 12 15 18 17 11 12 16 13 7 357
196 228 236 237 243 261 104 132 173 217 222 233 234 230 238 234 233 254 269 269 253 250 255 270 282 69 101 102 93 92 94 108 124 130 135 142 147 156 160 162 160 150 147 148 145 147 149 146 146 149 152 157 160 171 331 47 82 88 79 56 21 3 353 351 355 357 0 8 13 14 12 5 3 8 12 14 15 16 17 18 17 14 10 6 1 354
179 216 220 219 210 193 179 171 167 179 200 214 206 204 224 231 227 250 276 260 255 256 264 278 297 75 114 131 121 118 116 121 126 131 139 145 150 158 160 159 158 149 145 146 146 147 147 145 147 151 154 162 166 85 66 92 96 91 82 54 26 20 2 355 1 7 12 12 10 14 15 9 10 14 16 18 17 15 16 17 21 19 10 3 2 3
185 203 200 220 221 195 195 195 179 174 175 182 174 178 200 217 215 223 253 255 258 229 239 273 312 94 133 141 129 127 126 123 126 131 136 145 156 158 156 158 157 149 146 148 149 149 150 153 158 163 174 185 142 106 114 105 95 85 58 25 6 359 357 355 353 358 13 18 11 17 20 16 16 17 16 18 14 13 15 16 19 20 13 10 11 10
197 204 206 246 281 314 350 12 2 327 184 169 168 173 186 202 204 220 254 263 262 199 214 255 34 100 140 142 141 140 138 134 134 137 140 148 155 153 154 160 156 151 149 149 153 155 154 153 153 163 195 189 131 132 123 107 96 56 10 2 353 346 345 348 349 355 8 18 20 22 19 16 17 16 14 15 13 14 18 16 14 14 11 10 14 13
214 208 203 241 286 333 352 7 349 300 241 161 158 163 165 173 199 220 233 78 190 248 255 74 66 57 113 129 142 139 136 139 138 141 144 147 150 151 155 160 155 149 148 151 158 152 143 139 144 161 172 152 137 132 120 110 90 34 5 351 342 337 338 345 356 6 12 18 24 21 16 15 16 13 11 12 13 15 16 14 11 10 6 4 8 6
228 203 178 208 242 4 8 351 260 251 135 131 142 148 154 174 198 193 93 58 16 299 51 78 81 71 87 112 128 128 131 134 131 136 141 145 152 154 157 161 156 148 146 149 150 141 133 129 140 150 150 139 134 131 123 114 71 7 342 334 333 335 343 351 4 16 17 20 21 16 14 17 16 14 13 13 13 12 11 9 7 6 1 358 359 357
245 185 158 189 178 88 101 159 166 161 138 123 121 126 133 131 119 103 90 71 61 77 91 101 96 81 78 98 109 114 121 122 124 132 139 146 153 157 161 163 155 148 147 147 146 147 153 147 141 144 141 134 134 136 132 107 4 341 335 336 336 338 348 0 11 17 15 14 15 13 17 21 19 17 16 16 14 11 9 7 6 5 3 1 3 4
233 176 168 191 163 105 122 147 162 166 144 123 109 109 118 111 102 101 95 85 87 94 104 119 111 94 85 96 106 115 121 123 131 137 140 147 156 162 167 161 150 148 148 146 145 148 149 144 141 140 135 133 137 137 127 34 354 348 346 345 341 345 358 10 14 13 9 8 11 10 14 23 21 19 18 18 17 15 15 15 15 15 16 16 15 18
210 178 163 198 206 116 138 161 160 156 148 133 111 93 97 104 98 93 82 61 59 107 133 160 139 113 119 119 120 127 130 131 137 139 143 153 163 169 166 154 148 149 148 145 145 145 144 142 138 135 133 134 134 123 92 32 15 6 354 349 351 359 7 9 9 7 3 6 7 356 1 25 25 21 22 22 21 23 23 24 26 26 27 28 28 31
187 168 157 195 215 137 154 175 163 165 176 157 110 65 56 85 96 100 96 73 37 35 153 200 66 105 132 140 138 138 139 140 141 144 151 159 166 171 161 149 147 147 148 149 149 146 144 140 136 135 133 128 124 118 76 49 31 16 13 10 7 6 5 4 4 360 356 360 357 344 356 24 27 21 26 25 25 29 28 29 32 30 29 31 32 37
175 180 172 198 210 158 161 178 183 198 213 147 86 37 37 65 84 99 102 87 60 47 65 74 90 119 138 144 142 140 140 139 137 139 147 156 164 161 144 141 145 145 145 147 149 149 147 141 136 133 128 123 126 130 99 75 58 45 42 29 17 13 15 14 7 1 359 359 354 346 353 14 30 24 25 26 26 30 30 31 35 33 32 31 32 37
171 180 171 194 210 149 150 183 209 221 201 87 85 75 69 57 71 92 95 85 71 73 89 97 112 130 137 135 133 131 130 129 127 130 138 144 149 143 136 141 151 151 143 142 150 153 146 138 133 128 127 131 133 119 95 82 68 56 45 34 30 27 26 25 16 11 10 4 360 354 348 353 34 34 23 22 24 26 27 30 33 35 35 32 30 33
175 169 155 156 141 144 170 204 224 159 112 119 114 112 120 128 130 128 115 95 80 77 98 113 122 130 131 129 129 130 130 127 123 123 128 127 131 137 135 137 149 150 145 145 150 145 135 133 134 132 135 139 130 116 104 95 80 59 40 32 33 30 30 32 23 15 11 1 359 358 345 340 34 45 19 18 21 17 19 24 26 30 32 32 30 28
185 169 161 159 154 193 204 202 154 140 155 147 122 112 105 91 117 196 102 96 87 74 112 126 131 134 131 128 132 135 138 140 133 123 123 123 124 126 129 145 155 149 140 139 139 133 132 134 134 132 134 132 124 117 105 92 73 54 40 29 29 29 29 29 22 13 10 1 359 1 349 342 28 48 12 15 20 8 10 17 17 18 23 26 26 24
166 169 175 177 183 237 232 208 192 203 192 127 102 95 57 41 35 340 297 123 94 86 124 130 131 133 134 136 140 145 156 167 145 119 122 123 119 117 120 131 140 135 129 131 134 133 133 133 128 127 129 126 121 113 103 85 60 45 33 23 24 24 19 15 11 7 5 2 2 5 355 345 6 25 2 19 25 7 5 11 8 8 16 21 21 20
132 138 184 185 169 201 232 236 241 252 89 93 103 103 97 66 19 299 244 184 104 105 124 128 132 140 143 145 151 162 187 211 129 113 123 123 118 117 119 120 123 127 130 132 134 134 132 126 124 124 121 118 114 109 99 76 51 33 18 14 14 12 7 3 0 357 358 359 1 4 359 350 355 359 352 8 17 0 356 5 2 359 5 15 18 16
158 169 203 217 189 194 235 253 284 56 81 90 94 97 102 120 251 252 248 195 127 134 128 128 140 145 144 150 160 169 264 3 100 118 123 122 118 119 123 125 128 131 131 131 132 130 120 110 111 115 114 113 114 111 97 68 43 22 10 7 3 360 357 354 352 353 357 2 6 10 6 360 360 358 352 358 5 356 357 6 6 359 1 9 10 7
157 165 213 236 199 186 236 249 176 89 84 74 66 84 121 182 235 255 275 99 127 133 122 124 137 137 140 152 151 109 70 80 106 118 122 123 122 121 123 124 125 127 128 129 126 120 111 106 110 114 113 113 113 108 87 58 34 16 10 5 359 355 352 350 353 357 2 8 15 21 23 21 22 21 14 12 13 5 2 6 9 4 3 7 6 6
165 169 184 236 231 204 239 251 195 110 80 29 43 103 157 233 241 116 90 115 126 121 115 119 126 129 133 121 101 102 106 107 112 119 124 127 126 126 127 126 125 126 126 121 116 114 114 113 112 110 107 106 106 96 73 50 30 20 17 7 359 354 351 352 356 1 8 14 19 27 31 29 29 29 20 13 12 9 9 12 9 3 3 8 9 9
28 211 173 153 16 217 213 245 249 143 87 8 340 146 136 323 74 109 113 114 112 112 116 119 118 122 122 110 105 112 118 116 118 124 129 130 130 129 130 128 127 127 123 119 116 116 114 112 110 108 106 104 100 85 57 39 29 23 17 7 359 355 355 356 359 8 13 10 12 23 23 16 18 22 16 11 13 16 17 15 9 3 4 9 12 13
9 324 189 106 9 285 223 219 342 70 71 29 10 71 76 63 85 114 118 108 103 108 116 115 110 110 113 113 115 119 122 124 126 129 132 132 129 129 128 128 127 126 124 120 116 112 111 111 113 112 107 100 87 66 43 35 29 19 12 7 2 359 359 357 0 11 9 359 1 13 9 3 11 18 16 15 22 26 22 17 14 10 8 13 17 19
36 21 58 70 50 32 52 71 73 73 74 66 64 78 89 87 85 100 111 106 98 97 104 110 110 108 112 118 122 124 128 129 127 129 131 129 128 129 128 128 127 126 123 118 113 109 108 110 112 110 101 89 68 48 37 30 25 14 7 6 5 3 1 359 2 7 2 357 360 5 6 7 12 17 19 20 25 29 25 22 21 19 18 21 24 27
79 65 57 89 110 96 71 69 86 88 83 85 83 85 93 93 87 91 99 98 91 92 100 108 111 113 119 125 126 127 129 130 129 130 132 131 131 131 129 129 130 127 124 119 112 108 105 105 109 105 93 78 53 38 28 17 14 10 4 6 7 0 356 359 4 2 357 2 11 11 12 15 14 15 18 19 23 26 24 24 25 25 26 27 28 32
94 48 97 118 146 142 87 76 87 89 89 93 94 91 91 90 89 90 94 95 94 97 101 105 110 116 120 124 126 125 126 130 132 132 132 133 133 133 132 134 133 129 126 121 114 108 103 101 104 98 88 72 43 30 16 4 4 2 1 6 4 355 354 359 2 359 2 17 28 18 11 14 15 13 11 13 21 22 21 24 27 27 29 31 32 33
119 158 125 108 106 106 102 103 100 93 90 93 97 98 97 95 94 94 96 99 100 100 102 105 111 117 119 121 124 124 124 127 129 130 131 132 134 136 137 137 135 133 130 126 121 114 105 101 101 94 83 66 33 19 6 355 349 348 355 360 354 351 359 3 3 16 33 36 30 18 6 7 11 8 2 3 8 8 13 22 21 19 23 28 32 33
131 151 123 108 105 102 109 121 119 105 96 94 97 101 102 102 102 101 100 102 103 104 106 108 111 116 119 121 123 125 124 124 126 129 132 133 136 141 141 139 140 139 136 135 133 124 115 108 101 84 69 45 9 354 348 340 336 341 350 349 345 351 0 0 7 34 44 28 16 7 1 1 2 358 354 352 348 338 341 353 1 7 8 8 19 29
135 137 125 130 138 136 139 147 143 122 112 112 109 108 108 107 107 106 105 106 107 109 111 113 114 117 119 120 124 126 125 124 126 130 131 133 137 141 142 144 147 146 146 146 142 134 126 112 95 82 48 357 332 330 333 333 335 345 350 341 341 348 350 349 1 16 14 7 1 353 354 357 353 347 343 341 336 325 322 324 333 355 357 352 4 16
52 103 113 106 112 128 141 147 141 120 120 123 118 114 113 111 109 108 107 108 111 114 117 118 119 120 119 120 124 127 127 127 131 132 132 132 136 141 147 152 154 156 158 156 149 145 140 114 89 66 339 327 321 325 338 343 343 349 352 349 355 357 348 336 336 329 334 347 344 333 333 340 340 338 337 334 330 322 317 319 327 335 336 341 354 1
Height
1523 1527 1528 1526 1521 1519 1518 1519 1521 1520 1520 1524 1524 1525 1526 1526 1526 1524 1526 1525 1525 1535 1538 1534 1536 1538 1540 1542 1542 1544 1545 1544 1546 1547 1548 1548 1549 1552 1554 1555 1555 1556 1556 1556 1556 1556 1555 1555 1555 1555 1555 1554 1553 1553 1554 1554 1554 1554 1554 1554 1554 1554 1554 1554 1554 1555 1555 1555 1554 1554 1554 1553 1552 1551 1550 1549 1548 1547 1547 1546 1545 1544 1544 1543 1542 1541
1525 1531 1527 1519 1517 1517 1518 1518 1519 1519 1520 1522 1522 1523 1524 1525 1526 1525 1527 1527 1526 1534 1536 1534 1538 1539 1538 1540 1541 1543 1544 1543 1544 1545 1547 1548 1549 1552 1553 1554 1555 1556 1556 1556 1556 1556 1556 1556 1556 1556 1555 1555 1554 1554 1554 1554 1555 1555 1554 1554 1554 1555 1555 1555 1555 1556 1556 1556 1555 1555 1555 1554 1553 1552 1551 1550 1549 1548 1547 1546 1545 1545 1544 1543 1543 1542
1530 1530 1520 1514 1515 1516 1517 1518 1519 1520 1520 1521 1519 1521 1525 1525 1527 1529 1529 1528 1527 1533 1536 1536 1540 1539 1536 1537 1539 1541 1542 1542 1543 1543 1545 1546 1548 1551 1553 1554 1555 1556 1556 1556 1557 1557 1556 1557 1557 1557 1556 1556 1555 1555 1555 1555 1555 1555 1555 1555 1555 1555 1556 1556 1556 1556 1556 1556 1556 1555 1555 1555 1554 1553 1552 1551 1550 1549 1548 1547 1546 1545 1544 1544 1543 1542
1532 1524 1512 1511 1516 1518 1519 1519 1520 1519 1517 1518 1518 1520 1525 1524 1527 1532 1533 1531 1529 1531 1535 1536 1538 1539 1538 1538 1538 1540 1541 1541 1543 1544 1544 1546 1548 1550 1552 1554 1554 1555 1556 1556 1556 1556 1556 1557 1557 1557 1556 1556 1556 1556 1556 1556 1556 1556 1556 1556 1556 1556 1556 1556 1556 1556 1556 1556 1556 1556 1555 1555 1554 1553 1553 1552 1551 1550 1549 1548 1547 1546 1545 1544 1543 1542
1525 1515 1510 1514 1517 1519 1522 1520 1520 1520 1516 1516 1520 1521 1523 1524 1523 1527 1530 1532 1533 1533 1533 1536 1541 1540 1538 1540 1538 1537 1539 1541 1542 1544 1544 1545 1548 1550 1551 1553 1554 1555 1555 1556 1556 1556 1557 1557 1557 1557 1557 1556 1556 1556 1556 1556 1556 1556 1557 1557 1557 1557 1557 1557 1557 1557 1557 1557 1556 1556 1555 1555 1555 1554 1553 1553 1552 1550 1549 1549 1548 1547 1546 1545 1544 1543
1519 1512 1513 1518 1519 1519 1523 1521 1518 1521 1518 1516 1522 1522 1520 1522 1522 1525 1529 1531 1537 1540 1532 1534 1545 1541 1534 1536 1536 1534 1537 1539 1540 1541 1543 1545 1547 1549 1551 1552 1554 1554 1555 1555 1556 1556 1557 1557 1557 1557 1557 1557 1557 1557 1557 1557 1557 1557 1557 1558 1558 1558 1558 1558 1558 1558 1558 1557 1557 1557 1556 1556 1555 1555 1554 1553 1552 1551 1550 1549 1548 1547 1546 1545 1544 1543
1515 1512 1513 1519 1521 1520 1523 1522 1516 1518 1520 1520 1521 1519 1518 1519 1521 1526 1529 1529 1536 1539 1529 1528 1541 1543 1537 1533 1531 1531 1535 1536 1538 1539 1540 1543 1546 1547 1550 1551 1553 1554 1554 1555 1556 1556 1556 1556 1557 1557 1557 1557 1558 1558 1558 1558 1558 1558 1559 1559 1559 1559 1559 1559 1559 1559 1559 1558 1558 1558 1557 1557 1556 1555 1554 1553 1553 1552 1551 1550 1549 1548 1546 1545 1544 1543
1512 1516 1517 1518 1521 1521 1523 1521 1514 1514 1521 1523 1520 1517 1518 1519 1522 1525 1526 1527 1529 1532 1531 1527 1533 1542 1539 1530 1526 1529 1534 1535 1536 1537 1539 1542 1544 1546 1548 1550 1552 1553 1554 1554 1555 1555 1556 1557 1557 1557 1557 1558 1558 1559 1559 1559 1559 1559 1560 1560 1560 1560 1560 1560 1560 1560 1560 1559 1559 1558 1558 1557 1557 1556 1555 1554 1553 1552 1551 1550 1549 1548 1547 1545 1544 1543
1509 1516 1517 1517 1522 1522 1518 1514 1510 1513 1521 1523 1517 1516 1517 1518 1521 1521 1523 1525 1524 1532 1539 1531 1531 1542 1539 1528 1526 1529 1533 1536 1536 1535 1537 1540 1543 1545 1547 1549 1551 1552 1553 1554 1554 1555 1556 1557 1557 1557 1557 1558 1559 1559 1560 1560 1560 1560 1561 1561 1561 1561 1562 1561 1561 1561 1560 1560 1559 1559 1558 1557 1557 1556 1555 1555 1553 1552 1551 1550 1549 1547 1547 1546 1544 1543
1510 1514 1512 1513 1519 1518 1511 1509 1509 1512 1518 1518 1515 1516 1516 1517 1520 1520 1523 1525 1528 1538 1541 1530 1530 1540 1538 1530 1531 1534 1534 1533 1532 1532 1533 1537 1542 1544 1546 1548 1550 1551 1553 1553 1554 1555 1556 1557 1557 1557 1558 1558 1559 1559 1560 1561 1561 1562 1562 1563 1563 1562 1563 1562 1562 1562 1561 1560 1560 1559 1559 1558 1557 1556 1555 1555 1553 1552 1551 1550 1549 1547 1546 1546 1544 1543
1510 1512 1511 1512 1514 1511 1508 1511 1511 1511 1513 1514 1516 1518 1521 1521 1521 1523 1523 1526 1536 1543 1535 1525 1525 1535 1539 1530 1524 1529 1529 1524 1525 1529 1532 1535 1540 1543 1544 1547 1548 1550 1552 1553 1554 1555 1556 1557 1557 1557 1558 1559 1559 1560 1561 1562 1562 1563 1563 1563 1564 1563 1563 1563 1563 1563 1562 1561 1561 1560 1559 1558 1558 1556 1555 1554 1553 1552 1551 1550 1549 1548 1546 1545 1544 1542
1510 1514 1512 1510 1510 1509 1510 1513 1513 1511 1511 1514 1516 1519 1526 1529 1528 1530 1530 1534 1545 1544 1533 1525 1523 1532 1542 1531 1517 1520 1521 1518 1522 1527 1530 1533 1537 1540 1543 1545 1547 1549 1551 1552 1554 1555 1556 1557 1557 1558 1559 1559 1561 1562 1562 1563 1563 1564 1564 1564 1564 1564 1564 1564 1564 1563 1563 1562 1561 1560 1560 1559 1558 1557 1556 1555 1553 1552 1551 1550 1548 1547 1546 1544 1543 1542
1512 1512 1507 1507 1508 1508 1512 1515 1516 1515 1513 1515 1516 1521 1531 1537 1540 1544 1540 1540 1543 1538 1531 1527 1528 1534 1536 1523 1515 1518 1520 1519 1522 1524 1528 1531 1534 1538 1541 1544 1547 1548 1550 1552 1553 1555 1556 1556 1557 1558 1559 1560 1562 1563 1563 1564 1564 1565 1565 1566 1566 1565 1565 1565 1564 1564 1563 1562 1561 1560 1560 1559 1558 1556 1555 1554 1553 1552 1550 1549 1547 1546 1545 1543 1542 1541
1516 1510 1504 1508 1509 1505 1510 1515 1519 1519 1516 1517 1517 1521 1532 1538 1548 1553 1543 1540 1540 1535 1529 1526 1532 1537 1528 1518 1515 1517 1519 1522 1523 1526 1529 1530 1533 1537 1540 1544 1546 1548 1550 1551 1553 1554 1555 1556 1557 1558 1559 1561 1562 1563 1564 1564 1565 1566 1566 1567 1567 1566 1566 1565 1565 1564 1563 1562 1561 1560 1559 1558 1557 1556 1555 1554 1552 1551 1549 1548 1546 1545 1544 1543 1541 1540
1522 1518 1506 1506 1506 1502 1505 1508 1508 1508 1510 1512 1507 1511 1523 1527 1539 1546 1539 1539 1539 1534 1532 1533 1535 1533 1526 1522 1517 1516 1520 1523 1525 1528 1529 1531 1533 1536 1540 1543 1546 1548 1550 1551 1552 1554 1554 1555 1557 1558 1560 1562 1562 1563 1564 1565 1566 1567 1567 1567 1567 1567 1566 1566 1565 1564 1563 1562 1561 1560 1559 1558 1556 1555 1554 1552 1551 1549 1548 1546 1545 1544 1543 1542 1540 1539
1520 1518 1499 1496 1498 1497 1501 1500 1496 1503 1510 1507 1500 1510 1519 1514 1518 1528 1529 1529 1530 1531 1533 1533 1528 1518 1516 1519 1514 1516 1521 1522 1526 1528 1529 1532 1533 1536 1541 1543 1546 1548 1549 1551 1552 1553 1554 1555 1557 1559 1560 1562 1563 1564 1564 1565 1566 1567 1567 1567 1567 1567 1566 1565 1565 1564 1563 1562 1561 1559 1558 1557 1555 1554 1553 1551 1550 1548 1547 1545 1544 1543 1542 1541 1540 1538
1520 1515 1495 1495 1499 1494 1497 1496 1493 1503 1510 1506 1507 1515 1510 1500 1505 1521 1528 1524 1527 1537 1532 1523 1520 1513 1515 1520 1515 1517 1522 1522 1526 1528 1528 1532 1534 1538 1541 1542 1545 1547 1548 1551 1552 1553 1554 1555 1557 1559 1560 1562 1563 1564 1564 1565 1566 1566 1567 1567 1567 1566 1566 1565 1564 1564 1563 1562 1560 1559 1558 1556 1555 1554 1552 1551 1549 1548 1546 1544 1543 1542 1541 1540 1539 1538
1511 1511 1495 1495 1502 1495 1494 1496 1494 1496 1500 1507 1514 1507 1498 1501 1506 1516 1529 1530 1532 1541 1529 1518 1522 1519 1520 1526 1521 1519 1523 1524 1526 1527 1530 1533 1535 1538 1540 1541 1544 1545 1548 1550 1551 1553 1554 1555 1558 1559 1560 1562 1563 1564 1564 1565 1566 1566 1567 1567 1566 1566 1565 1565 1564 1564 1563 1561 1560 1559 1557 1555 1554 1553 1551 1550 1548 1547 1545 1544 1543 1542 1541 1540 1539 1538
1504 1513 1500 1491 1498 1496 1492 1499 1503 1498 1496 1502 1504 1496 1500 1518 1521 1519 1530 1534 1536 1541 1530 1520 1522 1519 1518 1523 1520 1519 1521 1523 1526 1528 1531 1534 1536 1538 1540 1541 1544 1545 1548 1550 1551 1553 1554 1556 1558 1559 1561 1562 1563 1564 1565 1566 1566 1566 1567 1566 1566 1566 1565 1565 1564 1563 1562 1561 1559 1558 1556 1555 1553 1552 1550 1549 1548 1547 1545 1544 1542 1542 1541 1540 1539 1538
1501 1514 1508 1492 1491 1495 1495 1502 1507 1504 1499 1499 1500 1497 1500 1511 1515 1515 1520 1521 1529 1537 1532 1526 1524 1520 1519 1518 1516 1517 1517 1520 1527 1529 1531 1533 1536 1539 1540 1542 1544 1545 1548 1549 1551 1553 1554 1556 1558 1559 1561 1562 1563 1564 1564 1565 1566 1565 1566 1566 1565 1565 1564 1564 1564 1562 1561 1560 1558 1557 1555 1554 1552 1550 1549 1548 1547 1546 1545 1544 1542 1541 1541 1540 1539 1538
1499 1511 1512 1499 1493 1498 1500 1499 1498 1497 1497 1502 1506 1506 1504 1505 1506 1510 1511 1510 1518 1528 1529 1530 1528 1522 1521 1518 1516 1517 1516 1519 1525 1527 1530 1533 1536 1539 1541 1542 1543 1546 1548 1549 1551 1553 1554 1556 1558 1559 1561 1561 1563 1564 1564 1565 1565 1566 1567 1566 1566 1565 1564 1563 1562 1561 1560 1559 1558 1556 1554 1553 1551 1550 1549 1548 1547 1546 1545 1544 1542 1542 1541 1540 1539 1537
1500 1506 1509 1504 1500 1501 1496 1489 1487 1489 1489 1494 1500 1499 1500 1503 1507 1518 1522 1513 1511 1517 1521 1526 1527 1524 1523 1520 1518 1518 1518 1519 1524 1527 1530 1533 1536 1539 1541 1542 1544 1546 1548 1549 1551 1553 1554 1556 1558 1559 1560 1561 1562 1563 1564 1565 1565 1566 1566 1566 1566 1565 1564 1563 1562 1561 1560 1558 1557 1555 1553 1552 1551 1550 1550 1548 1547 1545 1545 1544 1543 1542 1541 1540 1538 1537
1493 1500 1506 1505 1497 1492 1489 1486 1487 1489 1487 1489 1490 1488 1490 1494 1501 1517 1525 1516 1511 1515 1514 1516 1522 1525 1525 1522 1520 1521 1520 1522 1525 1528 1531 1535 1538 1540 1541 1543 1544 1546 1548 1550 1551 1553 1555 1556 1557 1558 1559 1560 1562 1562 1563 1564 1565 1565 1566 1566 1566 1564 1563 1563 1561 1560 1558 1557 1556 1555 1554 1553 1551 1550 1549 1548 1546 1545 1544 1544 1543 1541 1540 1539 1538 1536
1493 1501 1508 1508 1497 1488 1487 1488 1487 1487 1489 1493 1491 1487 1488 1491 1493 1500 1504 1505 1511 1514 1514 1517 1524 1528 1527 1524 1523 1524 1523 1525 1527 1529 1533 1536 1538 1540 1542 1543 1544 1546 1548 1550 1551 1553 1554 1556 1557 1558 1559 1560 1561 1562 1563 1564 1564 1565 1565 1566 1566 1564 1563 1561 1560 1559 1557 1556 1555 1554 1554 1553 1551 1550 1549 1547 1546 1545 1544 1543 1542 1542 1540 1539 1538 1536
1498 1503 1506 1511 1510 1505 1502 1500 1498 1494 1492 1492 1491 1489 1490 1490 1492 1495 1496 1501 1509 1511 1511 1518 1525 1528 1527 1524 1523 1523 1524 1526 1528 1531 1534 1536 1539 1541 1542 1543 1544 1546 1548 1550 1552 1553 1554 1556 1557 1558 1559 1560 1561 1563 1563 1564 1564 1565 1565 1565 1565 1564 1563 1561 1559 1558 1557 1556 1555 1554 1553 1552 1550 1549 1548 1547 1546 1545 1544 1543 1542 1542 1541 1539 1538 1537
1493 1498 1502 1509 1513 1515 1515 1511 1505 1497 1491 1491 1492 1492 1493 1492 1493 1499 1501 1507 1515 1513 1511 1515 1521 1526 1526 1524 1524 1524 1524 1527 1530 1533 1535 1537 1540 1541 1542 1544 1545 1546 1548 1550 1552 1553 1554 1556 1557 1558 1560 1561 1562 1563 1563 1564 1564 1564 1565 1564 1563 1563 1562 1560 1559 1558 1557 1556 1555 1554 1553 1551 1550 1549 1548 1547 1546 1545 1544 1543 1542 1542 1541 1540 1538 1537
1490 1495 1497 1501 1504 1507 1510 1505 1496 1491 1491 1495 1496 1495 1494 1492 1492 1497 1504 1512 1514 1512 1512 1511 1513 1521 1524 1523 1525 1525 1526 1529 1531 1534 1536 1538 1540 1541 1542 1544 1545 1546 1549 1550 1552 1553 1554 1555 1557 1558 1559 1560 1561 1562 1562 1563 1564 1564 1564 1563 1562 1561 1560 1560 1559 1557 1556 1556 1555 1554 1553 1552 1551 1550 1549 1547 1546 1545 1544 1544 1543 1541 1540 1539 1538 1537
1493 1497 1496 1498 1500 1499 1499 1497 1492 1491 1492 1493 1495 1496 1495 1494 1495 1498 1506 1509 1506 1510 1517 1513 1509 1518 1522 1521 1524 1526 1526 1528 1531 1534 1537 1539 1540 1542 1543 1544 1546 1547 1549 1550 1552 1553 1554 1556 1557 1557 1559 1560 1561 1562 1562 1563 1564 1563 1563 1563 1562 1561 1560 1559 1558 1557 1556 1555 1554 1554 1553 1552 1551 1550 1549 1547 1546 1545 1544 1543 1542 1541 1539 1538 1537 1536
1491 1497 1495 1496 1500 1496 1494 1494 1492 1492 1493 1491 1493 1496 1496 1496 1497 1500 1505 1505 1502 1511 1520 1516 1513 1519 1521 1519 1522 1525 1526 1528 1531 1534 1537 1539 1541 1542 1543 1545 1546 1547 1549 1551 1552 1553 1555 1557 1557 1558 1559 1560 1561 1562 1562 1563 1563 1563 1563 1562 1561 1560 1559 1558 1557 1557 1556 1555 1555 1554 1553 1552 1551 1550 1549 1547 1546 1545 1544 1542 1541 1540 1539 1537 1536 1535
1487 1495 1494 1494 1499 1498 1495 1494 1493 1493 1495 1496 1496 1497 1496 1497 1498 1501 1505 1504 1503 1510 1515 1514 1517 1521 1520 1519 1522 1524 1526 1528 1532 1535 1537 1539 1541 1542 1543 1545 1546 1548 1550 1551 1553 1554 1555 1556 1557 1558 1559 1560 1561 1562 1562 1562 1562 1562 1562 1561 1560 1560 1559 1558 1557 1557 1556 1556 1555 1555 1554 1553 1552 1551 1549 1548 1547 1545 1544 1543 1541 1540 1538 1537 1536 1535
1488 1496 1494 1492 1499 1501 1496 1494 1493 1494 1497 1500 1501 1499 1497 1499 1501 1502 1505 1505 1506 1512 1513 1512 1519 1524 1522 1521 1523 1526 1528 1530 1533 1536 1538 1539 1541 1542 1543 1544 1546 1548 1551 1552 1553 1554 1556 1557 1558 1559 1560 1561 1562 1562 1562 1562 1562 1562 1562 1561 1560 1559 1558 1558 1558 1557 1557 1556 1555 1555 1554 1553 1552 1551 1550 1549 1548 1546 1545 1543 1542 1540 1539 1538 1536 1535
1486 1495 1495 1494 1502 1505 1498 1495 1496 1494 1496 1502 1505 1504 1502 1503 1505 1506 1507 1507 1508 1512 1514 1514 1519 1523 1523 1523 1526 1528 1529 1531 1534 1536 1538 1539 1541 1541 1542 1544 1546 1549 1550 1552 1554 1555 1557 1558 1559 1560 1561 1562 1562 1562 1563 1562 1562 1561 1561 1560 1560 1559 1559 1559 1558 1557 1557 1556 1556 1555 1554 1553 1553 1552 1551 1550 1549 1547 1546 1544 1543 1542 1540 1539 1538 1536
1484 1493 1496 1496 1505 1509 1500 1496 1495 1496 1503 1510 1509 1507 1506 1505 1506 1507 1508 1508 1508 1509 1514 1518 1520 1521 1521 1523 1526 1528 1529 1532 1534 1535 1537 1539 1540 1541 1542 1544 1547 1549 1551 1553 1555 1556 1557 1559 1560 1561 1561 1562 1562 1563 1563 1562 1562 1561 1560 1560 1560 1560 1559 1559 1558 1558 1557 1556 1556 1555 1553 1553 1553 1552 1551 1550 1549 1548 1547 1545 1544 1543 1542 1540 1539 1538
1483 1487 1490 1491 1501 1508 1503 1496 1497 1505 1515 1517 1510 1505 1506 1506 1506 1509 1510 1511 1510 1510 1513 1517 1518 1519 1520 1523 1525 1527 1529 1531 1534 1536 1537 1539 1540 1541 1543 1545 1548 1549 1551 1553 1555 1556 1557 1558 1560 1560 1561 1562 1563 1562 1562 1562 1561 1560 1560 1560 1560 1560 1559 1559 1558 1558 1557 1556 1556 1554 1553 1553 1553 1552 1552 1551 1550 1549 1548 1546 1545 1544 1543 1542 1541 1539
1484 1486 1489 1489 1494 1502 1502 1502 1512 1519 1518 1513 1507 1503 1505 1505 1505 1508 1511 1511 1511 1512 1514 1517 1519 1520 1521 1523 1525 1528 1530 1533 1535 1537 1538 1539 1541 1542 1544 1546 1548 1550 1552 1553 1555 1556 1557 1558 1560 1561 1561 1562 1562 1561 1561 1561 1561 1561 1561 1561 1560 1560 1559 1559 1558 1558 1557 1556 1556 1555 1553 1552 1552 1552 1552 1551 1550 1549 1548 1547 1546 1545 1544 1543 1542 1541
1481 1485 1489 1492 1495 1502 1505 1508 1518 1522 1513 1508 1508 1505 1504 1506 1506 1510 1515 1516 1513 1514 1515 1517 1520 1521 1521 1524 1527 1530 1532 1534 1536 1538 1539 1540 1541 1542 1544 1547 1548 1550 1551 1553 1555 1557 1558 1559 1560 1561 1561 1561 1561 1561 1561 1560 1561 1561 1561 1561 1560 1560 1559 1559 1558 1557 1557 1556 1556 1555 1554 1552 1551 1552 1552 1551 1550 1549 1549 1548 1547 1546 1545 1544 1543 1542
1476 1482 1489 1495 1499 1502 1503 1506 1511 1515 1513 1511 1511 1508 1506 1508 1508 1509 1517 1520 1515 1513 1516 1518 1520 1521 1524 1527 1529 1531 1534 1534 1536 1538 1540 1541 1542 1543 1544 1545 1547 1549 1551 1553 1556 1558 1559 1560 1560 1560 1560 1560 1560 1560 1560 1560 1561 1561 1561 1561 1560 1560 1559 1559 1558 1557 1557 1556 1555 1554 1554 1552 1551 1551 1551 1550 1550 1549 1548 1547 1546 1546 1545 1544 1543 1542
1475 1479 1484 1494 1501 1499 1501 1506 1509 1515 1518 1516 1512 1509 1507 1508 1507 1505 1514 1522 1518 1514 1516 1519 1521 1524 1527 1529 1531 1533 1534 1534 1535 1538 1540 1542 1542 1543 1545 1546 1548 1550 1553 1555 1556 1558 1559 1560 1559 1560 1560 1560 1560 1560 1560 1561 1561 1561 1561 1561 1560 1560 1559 1559 1558 1557 1556 1556 1555 1554 1553 1551 1550 1550 1550 1550 1549 1549 1548 1547 1546 1545 1544 1544 1543 1542
1478 1479 1479 1490 1500 1500 1502 1508 1509 1513 1520 1517 1512 1509 1508 1510 1507 1506 1515 1524 1520 1517 1519 1521 1524 1526 1528 1530 1532 1532 1532 1531 1534 1538 1541 1542 1543 1544 1546 1548 1550 1552 1554 1556 1557 1559 1560 1559 1559 1560 1560 1560 1560 1560 1560 1561 1561 1561 1561 1561 1560 1560 1559 1558 1558 1557 1556 1555 1554 1553 1552 1551 1550 1549 1549 1549 1549 1548 1547 1547 1546 1545 1544 1544 1543 1542
1483 1483 1484 1491 1498 1500 1502 1505 1506 1512 1518 1515 1510 1510 1510 1509 1508 1514 1527 1530 1521 1518 1521 1523 1525 1527 1528 1530 1531 1531 1531 1532 1534 1539 1542 1543 1545 1546 1548 1549 1551 1553 1554 1556 1558 1559 1559 1559 1560 1560 1560 1560 1560 1560 1561 1561 1562 1562 1561 1561 1560 1560 1559 1558 1557 1556 1555 1555 1553 1553 1552 1551 1550 1549 1548 1548 1547 1547 1546 1546 1545 1545 1544 1543 1543 1542
1488 1488 1490 1493 1496 1499 1503 1504 1506 1513 1516 1512 1511 1511 1510 1510 1513 1522 1530 1527 1519 1520 1524 1524 1526 1528 1529 1531 1531 1531 1534 1535 1537 1540 1543 1544 1546 1548 1549 1551 1552 1554 1556 1557 1558 1559 1559 1560 1560 1561 1561 1561 1561 1561 1561 1562 1562 1561 1561 1560 1560 1559 1558 1557 1556 1555 1555 1554 1553 1553 1552 1551 1550 1550 1549 1548 1547 1547 1546 1545 1545 1545 1544 1543 1542 1541
1493 1494 1494 1495 1496 1499 1501 1502 1506 1515 1516 1513 1512 1512 1511 1515 1521 1524 1523 1520 1520 1523 1525 1526 1528 1529 1530 1532 1532 1534 1537 1538 1539 1542 1543 1545 1547 1549 1551 1552 1554 1556 1557 1557 1558 1559 1560 1560 1561 1561 1561 1561 1561 1562 1561 1562 1562 1561 1560 1560 1559 1558 1557 1556 1556 1555 1555 1554 1553 1553 1552 1552 1551 1550 1550 1549 1548 1548 1547 1546 1545 1545 1543 1543 1542 1541
1495 1496 1497 1498 1500 1500 1502 1506 1513 1519 1518 1514 1514 1514 1513 1517 1522 1521 1520 1520 1522 1524 1526 1528 1530 1530 1532 1533 1534 1536 1538 1539 1541 1543 1544 1547 1548 1550 1552 1554 1555 1556 1557 1558 1559 1560 1560 1561 1561 1562 1562 1562 1562 1562 1561 1562 1562 1561 1560 1560 1558 1557 1557 1556 1555 1555 1554 1554 1554 1553 1552 1552 1551 1550 1550 1549 1548 1548 1547 1546 1546 1545 1544 1543 1542 1541
1497 1498 1498 1501 1503 1504 1507 1513 1517 1519 1517 1514 1515 1516 1516 1518 1520 1519 1520 1522 1523 1525 1527 1529 1531 1532 1533 1534 1535 1537 1539 1541 1543 1544 1546 1548 1549 1551 1553 1555 1555 1557 1558 1559 1560 1560 1561 1561 1561 1562 1562 1562 1562 1562 1561 1561 1561 1561 1560 1559 1558 1557 1557 1556 1555 1555 1554 1554 1553 1553 1553 1552 1551 1551 1550 1549 1549 1548 1547 1547 1546 1545 1544 1543 1542 1541
1500 1500 1499 1503 1508 1508 1510 1515 1517 1517 1517 1516 1517 1517 1518 1520 1521 1521 1521 1523 1525 1527 1529 1530 1532 1533 1534 1535 1537 1538 1540 1542 1544 1546 1547 1549 1551 1553 1554 1555 1556 1558 1559 1559 1560 1561 1561 1561 1561 1562 1562 1562 1562 1562 1561 1561 1561 1561 1560 1559 1558 1557 1556 1556 1555 1555 1554 1554 1553 1553 1553 1552 1551 1551 1550 1549 1549 1548 1548 1547 1546 1545 1544 1543 1542 1542
1500 1499 1499 1503 1509 1511 1513 1516 1517 1517 1518 1518 1519 1520 1521 1522 1523 1523 1524 1526 1527 1529 1531 1532 1533 1535 1535 1537 1538 1539 1541 1543 1545 1547 1549 1550 1552 1554 1555 1556 1557 1558 1559 1560 1560 1561 1562 1562 1562 1562 1562 1563 1562 1562 1562 1561 1561 1560 1559 1558 1558 1557 1556 1555 1555 1555 1554 1554 1553 1553 1553 1552 1552 1551 1550 1550 1549 1548 1548 1547 1546 1545 1544 1543 1543 1542
1500 1499 1500 1504 1508 1512 1517 1520 1518 1519 1521 1521 1521 1523 1523 1523 1525 1525 1526 1529 1530 1531 1533 1534 1535 1536 1537 1538 1539 1541 1543 1544 1546 1548 1550 1552 1554 1555 1555 1557 1558 1559 1560 1560 1561 1562 1562 1562 1563 1563 1563 1563 1563 1562 1562 1561 1560 1559 1559 1559 1558 1557 1556 1555 1555 1554 1554 1554 1553 1553 1553 1552 1552 1551 1550 1550 1549 1549 1548 1547 1546 1546 1545 1544 1543 1542
1501 1501 1503 1506 1510 1513 1518 1521 1520 1521 1523 1523 1523 1525 1525 1526 1528 1528 1529 1531 1532 1534 1535 1536 1537 1538 1539 1540 1542 1543 1544 1546 1548 1550 1551 1553 1554 1555 1556 1558 1559 1559 1560 1561 1561 1562 1562 1563 1563 1563 1563 1563 1563 1562 1562 1561 1560 1559 1559 1558 1558 1557 1556 1555 1555 1554 1554 1554 1554 1553 1553 1552 1552 1551 1550 1550 1549 1549 1548 1547 1546 1545 1544 1543 1542 1541
1500 1502 1504 1508 1513 1517 1519 1521 1521 1522 1525 1526 1526 1527 1528 1529 1530 1531 1532 1534 1535 1536 1537 1538 1539 1540 1541 1542 1544 1545 1546 1548 1549 1551 1552 1553 1555 1556 1557 1558 1559 1560 1561 1561 1562 1562 1562 1563 1563 1563 1563 1563 1562 1562 1561 1561 1560 1559 1558 1558 1557 1556 1556 1555 1555 1554 1555 1554 1554 1553 1553 1552 1552 1551 1550 1550 1549 1548 1547 1546 1546 1545 1544 1543 1542 1541
1502 1504 1505 1508 1514 1517 1518 1519 1519 1521 1525 1528 1528 1529 1531 1531 1532 1533 1535 1536 1536 1538 1539 1539 1540 1542 1543 1544 1545 1547 1548 1549 1550 1552 1553 1554 1555 1556 1557 1558 1559 1560 1561 1562 1562 1563 1563 1563 1563 1563 1563 1563 1562 1561 1561 1560 1559 1559 1558 1558 1557 1556 1556 1555 1555 1555 1555 1554 1553 1553 1552 1552 1551 1550 1550 1549 1548 1548 1547 1546 1545 1544 1543 1542 1541 1540
1504 1506 1506 1506 1509 1511 1514 1517 1518 1520 1524 1528 1530 1531 1532 1533 1534 1535 1536 1537 1538 1539 1540 1541 1542 1543 1545 1546 1547 1548 1549 1550 1551 1552 1553 1554 1556 1557 1558 1559 1560 1560 1561 1562 1562 1563 1563 1563 1563 1563 1563 1562 1561 1561 1560 1560 1559 1559 1558 1557 1557 1556 1556 1555 1555 1555 1555 1554 1553 1552 1552 1551 1551 1550 1549 1548 1547 1547 1546 1545 1544 1543 1542 1541 1540 1539